Location: Habighorst
(52.7089°N, 10.2278°E)
Time: 22:13:30
(UTC+00:00)

Cosmos 2297 Rocket - Pass Details

Date: 13 January 2026
Orbit: 837 x 844 km, 71.0° (Epoch: 7 February)

Event Time Altitude Azimuth Distance (km) Brightness Sun altitude
Exits shadow 05:47:34 - 335° (NNW) 2,690 4.4 -14.0°
Reaches altitude 10° 05:48:42 10° 344° (NNW) 2,476 4.3 -13.9°
Maximum altitude 05:51:19 13° 12° (NNE) 2,255 4.4 -13.5°
Drops below altitude 10° 05:53:57 10° 40° (NE) 2,475 4.9 -13.1°
Sets 05:57:55 0° 67° (ENE) 3,408 6.2 -12.5°
